Regional Weather Roundup
Issued by NWS Green Bay, WI

Home | Current Version | Previous Version | Graphics & Text | Print | Product List | Glossary Off
Versions: 1 2 3 4 5 6 7 8 9 10 11 12 13 14 15 16 17 18 19 20 21 22 23 24 25 26 27 28 29 30 31 32 33 34 35 36 37 38 39 40 41 42 43 44 45 46 47 48 49 50

000
ASUS43 KGRB 221700
RWRGRB

NORTH-CENTRAL AND NORTHEAST WISCONSIN REGIONAL WEATHER ROUNDUP
NATIONAL WEATHER SERVICE GREEN BAY WI
1200 PM CDT THU JUN 22 2017

WIZ005-009-010>012-018-019-221800-
NORTH CENTRAL WISCONSIN

CITY           SKY/WX    TMP DP  RH WIND       PRES   REMARKS
IRONWOOD       CLOUDY    70  51  51 W10       29.70R
MANITOWISH WTR NOT AVBL
ARBOR VITAE    NOT AVBL
EAGLE RIVER    NOT AVBL
LAND O LAKES   LGT RAIN  67  62  82 W3        29.72S
RHINELANDER    CLOUDY    71  66  84 W6        29.74R
PHILLIPS       RAIN      65  64  99 W5        29.76R
ANTIGO         NOT AVBL
TOMAHAWK       NOT AVBL
MERRILL        CLOUDY    71  68  89 W7        29.73R
$$

WIZ013-073-221800-
NORTHEAST WISCONSIN

CITY           SKY/WX    TMP DP  RH WIND       PRES   REMARKS
IRON MOUNTAIN  CLOUDY    75  62  64 W7        29.67S
MARINETTE      RAIN      70  68  93 VRB3      29.72R
$$

WIZ017-030-035>037-045-221800-
CENTRAL WISCONSIN

CITY           SKY/WX    TMP DP  RH WIND       PRES   REMARKS
MEDFORD        NOT AVBL
WAUSAU         CLOUDY    69  68  96 SW8       29.72S
MOSINEE        CLOUDY    70  68  94 S6        29.74S
MARSHFIELD     RAIN      69  66  90 W6        29.74R FOG
WISC RAPIDS    CLOUDY    72  68  87 S6        29.76R
STEVENS POINT  NOT AVBL
WAUPACA        CLOUDY    77  69  75 SW3       29.74F
SHAWANO        NOT AVBL
CLINTONVILLE   NOT AVBL
WAUTOMA        CLOUDY    74  66  76 W7        29.75S
$$

WIZ038-039-048-051-221800-
FOX VALLEY

CITY           SKY/WX    TMP DP  RH WIND       PRES   REMARKS
NWS GREEN BAY  CLOUDY    77  70  79 SW7       29.73S
APPLETON       PTSUNNY   75  64  69 SW12      29.74R
OSHKOSH        PTSUNNY   77  66  68 SW8       29.74S
FOND DU LAC    CLOUDY    77  65  66 SW6       29.75F
$$

WIZ022-050-052-221800-
EAST CENTRAL WISCONSIN

CITY           SKY/WX    TMP DP  RH WIND       PRES   REMARKS
EPHRAIM        NOT AVBL
WASHINGTON ISL NOT AVBL
STURGEON BAY     N/A     74  68  81 W12         N/A
MANITOWOC      NOT AVBL
SHEBOYGAN      CLOUDY    80  71  74 SW13      29.76R
$$

LMZ563-521-522-541>543-221800-
LAKESHORE

STATION/POSITION TIME  TEMP    WIND        PRES    VSBY  WAVE
                       AIR SEA DIR/SP/G                  HT/PER
                 (UTC) (F)     (DEG/KT/KT) (MB)    (MI)  (FT/S)
SHEBOYGAN LKSHOR 1600   76     210/ 13/ 15 1006.9R
KEWAUNEE LKSHORE 1630   58     170/ 13/ 17 1006.6R
ALGOMA MARINA    1617   56     210/  2/  4   N/A
NORTHPORT PIER   1640   73     230/  7/ 11 1005.4F
N MID LAKE BUOY  1550   58 55  190/ 12/ 14 1006.3S         3/ 5
SISTER BAY LKSHO 1608   75     280/ 10/ 13   N/A
CHAMBERS ISLAND  1640   70     200/  8/ 13 1005.8R
MENOMINEE LKSHOR 1630          240/ 12/ 15 1005.4R
$$




USA.gov is the U.S. government's official web portal to all federal, state and local government web resources and services.